• In Hungary
  • List of Countries
  • For 7 days
  • Water Temperature
  • Satellite Maps
  • Weather Map
  • News
  • Weather Widgets
  • user-avatar
    Login

    Hourly Weather Sydney

    Today, 22 August, Tuesday

    Time Temperature Precipitation Wind Pressure Humidity
    00:00 +11°C° 0 mm 1 mps 762 mmHg 75%
    01:00 +11°C° 0 mm 1 mps 762 mmHg 76%
    02:00 +10°C° 0 mm 1 mps 762 mmHg 79%
    03:00 +9°C° 0 mm 2 mps 762 mmHg 82%
    04:00 +8°C° 0 mm 2 mps 762 mmHg 84%
    05:00 +8°C° 0 mm 2 mps 762 mmHg 84%
    06:00 +8°C° 0 mm 2 mps 763 mmHg 84%
    07:00 +8°C° 0 mm 2 mps 763 mmHg 83%
    08:00 +12°C° 0 mm 2 mps 763 mmHg 70%
    09:00 +15°C° 0 mm 2 mps 763 mmHg 56%
    10:00 +20°C° 0 mm 1 mps 763 mmHg 43%
    11:00 +21°C° 0 mm 1 mps 763 mmHg 39%
    12:00 +21°C° 0 mm 2 mps 762 mmHg 35%
    13:00 +23°C° 0 mm 2 mps 762 mmHg 31%
    14:00 +21°C° 0 mm 2 mps 762 mmHg 33%
    15:00 +21°C° 0 mm 2 mps 762 mmHg 36%
    16:00 +20°C° 0 mm 3 mps 762 mmHg 38%
    17:00 +18°C° 0 mm 3 mps 763 mmHg 48%
    18:00 +16°C° 0 mm 2 mps 763 mmHg 58%
    19:00 +13°C° 0 mm 2 mps 764 mmHg 68%
    20:00 +13°C° 0 mm 2 mps 764 mmHg 71%
    21:00 +12°C° 0 mm 1 mps 764 mmHg 75%
    22:00 +11°C° 0 mm 1 mps 765 mmHg 78%
    23:00 +11°C° 0 mm 1 mps 765 mmHg 81%

    Tomorrow, 23 August, Wednesday

    Time Temperature Precipitation Wind Pressure Humidity
    00:00 +11°C° 0 mm 1 mps 765 mmHg 83%
    01:00 +9°C° 0 mm 2 mps 765 mmHg 86%
    02:00 +9°C° 0 mm 2 mps 765 mmHg 87%
    03:00 +9°C° 0 mm 2 mps 764 mmHg 88%
    04:00 +8°C° 0 mm 2 mps 764 mmHg 89%
    05:00 +8°C° 0 mm 2 mps 764 mmHg 87%
    06:00 +8°C° 0 mm 2 mps 764 mmHg 86%
    07:00 +8°C° 0 mm 2 mps 764 mmHg 85%
    08:00 +13°C° 0 mm 2 mps 764 mmHg 72%
    09:00 +16°C° 0 mm 2 mps 764 mmHg 59%
    10:00 +19°C° 0 mm 2 mps 764 mmHg 46%
    11:00 +21°C° 0 mm 3 mps 763 mmHg 41%
    12:00 +22°C° 0 mm 3 mps 762 mmHg 35%
    13:00 +25°C° 0 mm 3 mps 762 mmHg 29%
    14:00 +25°C° 0 mm 4 mps 761 mmHg 31%
    15:00 +23°C° 0 mm 4 mps 761 mmHg 32%
    16:00 +23°C° 0 mm 5 mps 760 mmHg 34%
    17:00 +20°C° 0.1 mm 4 mps 761 mmHg 47%
    18:00 +18°C° 0.1 mm 4 mps 761 mmHg 59%
    19:00 +15°C° 0.1 mm 4 mps 762 mmHg 72%
    20:00 +14°C° 0.4 mm 4 mps 762 mmHg 72%
    21:00 +13°C° 0.4 mm 4 mps 762 mmHg 72%
    22:00 +12°C° 0.4 mm 3 mps 762 mmHg 73%
    23:00 +12°C° 0.1 mm 4 mps 762 mmHg 72%

    Day after tomorrow, 24 August, Thursday

    Time Temperature Precipitation Wind Pressure Humidity
    00:00 +11°C° 0.1 mm 4 mps 762 mmHg 72%
    01:00 +9°C° 0.1 mm 5 mps 761 mmHg 72%
    02:00 +9°C° 0 mm 5 mps 761 mmHg 72%
    03:00 +8°C° 0 mm 5 mps 761 mmHg 72%
    04:00 +8°C° 0 mm 5 mps 761 mmHg 72%
    05:00 +8°C° 0 mm 5 mps 761 mmHg 71%
    06:00 +8°C° 0 mm 5 mps 761 mmHg 70%
    07:00 +8°C° 0 mm 5 mps 762 mmHg 68%
    08:00 +10°C° 0 mm 5 mps 762 mmHg 61%
    09:00 +14°C° 0 mm 6 mps 762 mmHg 53%
    10:00 +17°C° 0 mm 6 mps 762 mmHg 46%
    11:00 +17°C° 0.1 mm 6 mps 762 mmHg 46%
    12:00 +18°C° 0.1 mm 7 mps 761 mmHg 45%
    13:00 +18°C° 0.1 mm 7 mps 761 mmHg 45%
    14:00 +17°C° 0.2 mm 7 mps 761 mmHg 49%
    15:00 +16°C° 0.2 mm 7 mps 761 mmHg 53%
    16:00 +16°C° 0.2 mm 7 mps 761 mmHg 56%
    17:00 +15°C° 0.1 mm 7 mps 762 mmHg 59%
    18:00 +12°C° 0.1 mm 7 mps 762 mmHg 61%
    19:00 +11°C° 0.1 mm 7 mps 763 mmHg 63%
    20:00 +11°C° 0.1 mm 7 mps 763 mmHg 66%
    21:00 +10°C° 0.1 mm 8 mps 764 mmHg 69%
    22:00 +10°C° 0.1 mm 8 mps 764 mmHg 72%
    23:00 +9°C° 0.3 mm 8 mps 764 mmHg 73%

    25 August, Friday

    Time Temperature Precipitation Wind Pressure Humidity
    00:00 +9°C° 0.3 mm 8 mps 764 mmHg 73%
    01:00 +9°C° 0.3 mm 8 mps 764 mmHg 74%
    02:00 +7°C° 0.4 mm 8 mps 764 mmHg 73%
    03:00 +7°C° 0.4 mm 8 mps 764 mmHg 71%
    04:00 +6°C° 0.4 mm 8 mps 765 mmHg 70%
    05:00 +6°C° 0.3 mm 8 mps 765 mmHg 69%
    06:00 +6°C° 0.3 mm 8 mps 766 mmHg 68%
    07:00 +6°C° 0.3 mm 7 mps 766 mmHg 66%
    08:00 +9°C° 0.3 mm 7 mps 766 mmHg 62%
    09:00 +11°C° 0.3 mm 7 mps 766 mmHg 57%
    10:00 +13°C° 0.3 mm 8 mps 766 mmHg 52%
    11:00 +15°C° 0.1 mm 7 mps 766 mmHg 50%
    12:00 +16°C° 0.1 mm 7 mps 766 mmHg 48%
    13:00 +16°C° 0.1 mm 7 mps 765 mmHg 46%
    14:00 +16°C° 0 mm 7 mps 765 mmHg 45%
    15:00 +16°C° 0 mm 6 mps 765 mmHg 45%
    16:00 +16°C° 0 mm 6 mps 765 mmHg 45%
    17:00 +14°C° 0 mm 6 mps 766 mmHg 54%
    18:00 +13°C° 0 mm 5 mps 766 mmHg 63%
    19:00 +11°C° 0 mm 4 mps 767 mmHg 71%
    20:00 +10°C° 0 mm 4 mps 767 mmHg 74%
    21:00 +10°C° 0 mm 4 mps 768 mmHg 76%
    22:00 +8°C° 0 mm 4 mps 768 mmHg 78%
    23:00 +8°C° 0 mm 4 mps 768 mmHg 77%

    26 August, Saturday

    Time Temperature Precipitation Wind Pressure Humidity
    00:00 +7°C° 0 mm 4 mps 768 mmHg 77%
    01:00 +7°C° 0 mm 4 mps 768 mmHg 77%
    02:00 +6°C° 0 mm 4 mps 767 mmHg 76%
    03:00 +6°C° 0 mm 4 mps 767 mmHg 75%
    04:00 +6°C° 0 mm 4 mps 767 mmHg 75%
    05:00 +6°C° 0 mm 4 mps 768 mmHg 73%
    06:00 +6°C° 0 mm 4 mps 768 mmHg 72%
    07:00 +6°C° 0 mm 4 mps 768 mmHg 70%
    08:00 +10°C° 0 mm 4 mps 768 mmHg 61%
    09:00 +13°C° 0 mm 3 mps 768 mmHg 51%
    10:00 +18°C° 0 mm 3 mps 768 mmHg 41%
    11:00 +19°C° 0 mm 3 mps 768 mmHg 37%
    12:00 +20°C° 0 mm 3 mps 767 mmHg 33%
    13:00 +22°C° 0 mm 3 mps 767 mmHg 30%
    14:00 +21°C° 0 mm 3 mps 767 mmHg 32%
    15:00 +20°C° 0 mm 4 mps 767 mmHg 35%
    16:00 +19°C° 0 mm 4 mps 767 mmHg 38%
    17:00 +17°C° 0 mm 4 mps 767 mmHg 48%
    18:00 +14°C° 0 mm 3 mps 768 mmHg 58%
    19:00 +12°C° 0 mm 3 mps 768 mmHg 68%
    20:00 +11°C° 0 mm 3 mps 769 mmHg 71%
    21:00 +11°C° 0 mm 3 mps 769 mmHg 74%
    22:00 +10°C° 0 mm 3 mps 769 mmHg 77%
    23:00 +10°C° 0 mm 3 mps 769 mmHg 79%

    27 August, Sunday

    Time Temperature Precipitation Wind Pressure Humidity
    00:00 +9°C° 0 mm 3 mps 769 mmHg 81%
    01:00 +9°C° 0 mm 3 mps 769 mmHg 83%
    02:00 +9°C° 0 mm 3 mps 769 mmHg 83%
    03:00 +8°C° 0 mm 3 mps 769 mmHg 83%
    04:00 +7°C° 0 mm 4 mps 769 mmHg 83%
    05:00 +7°C° 0.1 mm 4 mps 769 mmHg 83%
    06:00 +7°C° 0.1 mm 4 mps 769 mmHg 82%
    07:00 +8°C° 0.1 mm 4 mps 770 mmHg 82%
    08:00 +10°C° 0.1 mm 5 mps 769 mmHg 73%
    09:00 +13°C° 0.1 mm 5 mps 769 mmHg 64%
    10:00 +16°C° 0.1 mm 5 mps 769 mmHg 56%
    11:00 +17°C° 0.1 mm 6 mps 769 mmHg 53%
    12:00 +19°C° 0.1 mm 6 mps 768 mmHg 50%
    13:00 +19°C° 0.1 mm 6 mps 768 mmHg 47%
    14:00 +19°C° 0 mm 6 mps 768 mmHg 51%
    15:00 +17°C° 0 mm 6 mps 767 mmHg 54%
    16:00 +17°C° 0 mm 6 mps 767 mmHg 58%
    17:00 +15°C° 0 mm 5 mps 768 mmHg 66%
    18:00 +13°C° 0 mm 4 mps 768 mmHg 75%
    19:00 +12°C° 0 mm 3 mps 769 mmHg 83%
    20:00 +12°C° 0.1 mm 3 mps 769 mmHg 84%
    21:00 +12°C° 0.1 mm 3 mps 769 mmHg 85%
    22:00 +11°C° 0.1 mm 3 mps 769 mmHg 86%
    23:00 +11°C° 0.3 mm 3 mps 769 mmHg 86%
    Show more